Content
SEND FEEDBACK

Daily
Averages
Monthly
Summary
United States of America

BUFFALO, OKLAHOMA


Home > North America > United States > Oklahoma
Elevation: 1810 feet     Latitude: 36 50N     Longitude: 099 37W

WEATHER
 
SELECT A DAY
Number of Records: 44,166;   Date Range: 9/1/12 - 9/3/14
 
SHARE

PRINT THIS DATA

[ ← Previous Day ]
WEATHER ALMANAC - JANUARY 22, 2013
[ Next Day → ]
[ °C ]   °F
Weather ElementAverageHighLow
Temperature40.7 °F59 °F (2:35 pm)28.4 °F (2:15 am)
Dewpoint24.2 °F28.4 °F (4:55 pm)19.4 °F (12:35 am)
Humidity54.2 %75 % (9:55 pm)29 % (2:35 pm)
Barometer30.17 in30.23 in (11:55 pm)30.12 in (1:35 pm)
Wind Speed7.2 mph13.8 mph (4:15 am)
Weather ElementAverage
Visibility10 mi
Wind DirectionSSE (147.7 °)

Weather ElementTotal
Precipitation---
Heating Degree Days21.3 (Base 65)
Averaged from 66 records on January 22, 2013
WEATHER CONDITIONS BREAKOUT
WIND DIRECTION BREAKOUT
WEATHER BY HOUR - JANUARY 22, 2013
[ °C ]   °F
Local TimeTemperatureDewpointHumidityBarometerVisibilityWind DirectionWind SpeedGust SpeedPrecipitationEventsConditions
12:35 AM32.0 °F19.4 °F60 %30.21 in10.0 miSouth (180°)3.5 mphClear
12:55 AM32.0 °F19.4 °F60 %30.21 in10.0 miCalmClear
1:15 AM30.2 °F19.4 °F64 %30.21 in10.0 miCalmClear
1:35 AM30.2 °F19.4 °F64 %30.21 in10.0 miESE (120°)4.6 mphClear
1:55 AM30.2 °F19.4 °F64 %30.20 in10.0 miSSE (150°)6.9 mphClear
2:15 AM28.4 °F19.4 °F69 %30.21 in10.0 miSSE (150°)4.6 mphClear
2:35 AM30.2 °F19.4 °F64 %30.20 in10.0 miSE (140°)4.6 mphClear
2:55 AM28.4 °F19.4 °F69 %30.20 in10.0 miSouth (180°)6.9 mphClear
3:15 AM32.0 °F19.4 °F60 %30.19 in10.0 miSSW (200°)5.8 mphClear
3:35 AM32.0 °F19.4 °F60 %30.19 in10.0 miSSW (200°)8.1 mphClear
3:55 AM32.0 °F19.4 °F60 %30.18 in10.0 miSSW (200°)12.7 mphClear
4:15 AM32.0 °F19.4 °F60 %30.17 in10.0 miSSW (200°)13.8 mphClear
4:35 AM32.0 °F19.4 °F60 %30.17 in10.0 miSSW (210°)12.7 mphClear
4:55 AM32.0 °F19.4 °F60 %30.16 in10.0 miSSW (210°)12.7 mphClear
5:15 AM32.0 °F19.4 °F60 %30.16 in10.0 miSSW (210°)11.5 mphClear
5:35 AM32.0 °F19.4 °F60 %30.16 in10.0 miSSW (200°)11.5 mphClear
5:55 AM32.0 °F19.4 °F60 %30.16 in10.0 miSSW (200°)11.5 mphClear
6:15 AM32.0 °F19.4 °F60 %30.16 in10.0 miSSW (210°)11.5 mphClear
6:35 AM32.0 °F19.4 °F60 %30.16 in10.0 miSSW (210°)10.4 mphClear
6:55 AM32.0 °F19.4 °F60 %30.16 in10.0 miSSW (210°)10.4 mphClear
7:15 AM32.0 °F19.4 °F60 %30.16 in10.0 miSSW (210°)10.4 mphClear
7:55 AM30.2 °F21.2 °F69 %30.15 in10.0 miSSW (210°)11.5 mphClear
8:15 AM32.0 °F21.2 °F64 %30.15 in10.0 miSSW (210°)10.4 mphClear
8:35 AM33.8 °F21.2 °F60 %30.15 in10.0 miSSW (200°)10.4 mphClear
8:55 AM35.6 °F23.0 °F60 %30.15 in10.0 miSSW (200°)12.7 mphClear
9:15 AM37.4 °F23.0 °F56 %30.15 in10.0 miSSW (210°)11.5 mphClear
9:55 AM42.8 °F24.8 °F49 %30.17 in10.0 miSW (220°)12.7 mphClear
10:15 AM42.8 °F26.6 °F53 %30.18 in10.0 miSW (230°)12.7 mphClear
10:35 AM44.6 °F26.6 °F49 %30.18 in10.0 miWSW (240°)10.4 mphClear
10:55 AM46.4 °F26.6 °F46 %30.19 in10.0 miWSW (250°)10.4 mphClear
11:15 AM46.4 °F26.6 °F46 %30.19 in10.0 miSW (230°)6.9 mphClear
11:35 AM48.2 °F26.6 °F43 %30.19 in10.0 miSSW (210°)6.9 mphClear
11:55 AM50.0 °F26.6 °F40 %30.18 in10.0 miSSW (210°)5.8 mphClear
12:15 PM50.0 °F26.6 °F40 %30.17 in10.0 miSSW (210°)6.9 mphClear
12:55 PM53.6 °F26.6 °F35 %30.14 in10.0 miSW (220°)6.9 mphClear
1:15 PM53.6 °F26.6 °F35 %30.13 in10.0 miWSW (250°)6.9 mphClear
1:35 PM55.4 °F26.6 °F33 %30.12 in10.0 miWSW (250°)5.8 mphClear
1:55 PM55.4 °F26.6 °F33 %30.12 in10.0 miWSW (250°)3.5 mphClear
2:15 PM57.2 °F26.6 °F31 %30.12 in10.0 miWNW (290°)4.6 mphClear
2:35 PM59.0 °F26.6 °F29 %30.12 in10.0 miWNW (290°)4.6 mphClear
2:55 PM59.0 °F26.6 °F29 %30.12 in10.0 miWNW (300°)4.6 mphClear
3:15 PM59.0 °F26.6 °F29 %30.12 in10.0 miCalmClear
3:35 PM59.0 °F26.6 °F29 %30.12 in10.0 miNorth (360°)4.6 mphClear
3:55 PM59.0 °F26.6 °F29 %30.12 in10.0 miNNE (30°)3.5 mphClear
4:15 PM59.0 °F26.6 °F29 %30.13 in10.0 miNNE (30°)5.8 mphClear
4:35 PM59.0 °F26.6 °F29 %30.13 in10.0 miNNE (30°)8.1 mphClear
4:55 PM55.4 °F28.4 °F36 %30.14 in10.0 miNNE (20°)11.5 mphClear
5:15 PM51.8 °F28.4 °F41 %30.15 in10.0 miNorth (10°)8.1 mphClear
5:35 PM48.2 °F28.4 °F46 %30.15 in10.0 miNE (50°)4.6 mphClear
5:55 PM44.6 °F28.4 °F53 %30.16 in10.0 miNNE (30°)6.9 mphClear
6:15 PM41.0 °F28.4 °F61 %30.16 in10.0 miNNE (30°)6.9 mphClear
6:35 PM41.0 °F28.4 °F61 %30.17 in10.0 miNNE (20°)6.9 mphClear
6:55 PM41.0 °F28.4 °F61 %30.17 in10.0 miNNE (30°)5.8 mphClear
7:15 PM41.0 °F26.6 °F57 %30.17 in10.0 miNNE (30°)4.6 mphClear
7:35 PM41.0 °F28.4 °F61 %30.17 in10.0 miCalmClear
7:55 PM39.2 °F28.4 °F65 %30.17 in10.0 miENE (70°)5.8 mphClear
8:15 PM39.2 °F26.6 °F61 %30.18 in10.0 miEast (90°)5.8 mphClear
8:35 PM37.4 °F28.4 °F70 %30.18 in10.0 miEast (80°)5.8 mphClear
8:55 PM37.4 °F26.6 °F65 %30.19 in10.0 miCalmClear
9:15 PM35.6 °F26.6 °F70 %30.20 in10.0 miNE (50°)6.9 mphClear
9:35 PM35.6 °F26.6 °F70 %30.21 in10.0 miENE (70°)4.6 mphClear
9:55 PM33.8 °F26.6 °F75 %30.21 in10.0 miEast (80°)5.8 mphClear
10:15 PM33.8 °F26.6 °F75 %30.21 in10.0 miEast (100°)5.8 mphClear
10:55 PM35.6 °F26.6 °F70 %30.21 in10.0 miEast (100°)8.1 mphClear
11:15 PM35.6 °F26.6 °F70 %30.22 in10.0 miEast (90°)5.8 mphClear
11:55 PM33.8 °F24.8 °F70 %30.23 in10.0 miEast (80°)4.6 mphClear
Hourly data recorded from KWWR, located miles away from Buffalo, Oklahoma







STORIES FROM OUR PARTNERS